EW4561 Weather Reports


Display with metric or nautical units.
time (UTC)temp
F
wind
direction
speed
MPH
gust
MPH
rain 1hr
in
rain 24hr
in
rain mn
in
humidity
%
barometer
mb
20190224003808 76 118 6.0 12.0 0.00 0.00 0.00 51 1026.8
20190224003207 76 116 6.0 11.0 0.00 0.00 0.00 52 1026.8
20190224002608 75 117 8.0 12.0 0.00 0.00 0.00 52 1026.9
20190224002009 74 130 10.0 20.0 0.00 0.00 0.00 54 1026.9
20190224001408 73 136 9.0 20.0 0.00 0.00 0.00 54 1026.9
20190224000807 73 138 7.0 15.0 0.00 0.00 0.00 57 1026.9
20190224000207 73 132 7.0 14.0 0.00 0.00 0.00 57 1026.8
20190223235607 73 131 9.0 15.0 0.00 0.00 0.00 57 1026.8
20190223235008 73 144 9.0 18.0 0.00 0.00 0.00 57 1026.8
20190223234408 73 157 9.0 18.0 0.00 0.00 0.00 58 1026.9
20190223233807 72 159 9.0 18.0 0.00 0.00 0.00 60 1026.8
20190223233209 72 166 7.0 17.0 0.00 0.00 0.00 60 1026.9
20190223232607 72 151 7.0 17.0 0.00 0.00 0.00 59 1026.8
20190223232008 73 146 7.0 13.0 0.00 0.00 0.00 61 1026.8
20190223231407 72 168 8.0 14.0 0.00 0.00 0.00 61 1026.7
20190223230807 71 172 8.0 14.0 0.00 0.00 0.00 62 1026.7
20190223230207 71 168 7.0 16.0 0.00 0.00 0.00 62 1026.7
20190223225608 71 173 6.0 16.0 0.00 0.00 0.00 62 1026.7
20190223225008 71 173 7.0 13.0 0.00 0.00 0.00 62 1026.8
20190223224409 71 167 8.0 16.0 0.00 0.00 0.00 63 1026.7
20190223223807 71 172 8.0 15.0 0.00 0.00 0.00 62 1026.7
20190223223208 70 170 7.0 15.0 0.00 0.00 0.00 63 1026.7
20190223222607 70 178 6.0 15.0 0.00 0.00 0.00 65 1026.6
20190223222008 69 182 5.0 12.0 0.00 0.00 0.00 66 1026.5
20190223221408 69 195 5.0 11.0 0.00 0.00 0.00 68 1026.5
20190223220808 68 203 5.0 12.0 0.00 0.00 0.00 68 1026.5
20190223220208 67 196 5.0 13.0 0.00 0.00 0.00 70 1026.5
20190223215608 67 191 5.0 11.0 0.00 0.00 0.00 70 1026.5
20190223215007 67 186 4.0 11.0 0.00 0.00 0.00 71 1026.6
20190223214408 67 182 4.0 8.0 0.00 0.00 0.00 71 1026.5
20190223213807 66 190 5.0 10.0 0.00 0.00 0.00 71 1026.4
20190223213207 66 190 5.0 10.0 0.00 0.00 0.00 72 1026.4
20190223212607 65 177 4.0 11.0 0.00 0.00 0.00 72 1026.3
20190223212008 65 179 4.0 11.0 0.00 0.00 0.00 72 1026.3
20190223211408 65 178 4.0 10.0 0.00 0.00 0.00 72 1026.1
20190223210807 65 172 4.0 10.0 0.00 0.00 0.00 72 1026.0
20190223210208 65 167 4.0 10.0 0.00 0.00 0.00 72 1025.9
20190223205608 65 182 4.0 10.0 0.00 0.00 0.00 72 1025.8
20190223205008 65 190 4.0 9.0 0.00 0.00 0.00 71 1025.7
20190223204409 65 201 4.0 9.0 0.00 0.00 0.00 71 1025.8
20190223203808 65 210 4.0 15.0 0.00 0.00 0.00 71 1025.7
20190223203207 64 203 4.0 10.0 0.00 0.00 0.00 71 1025.6
20190223202607 65 195 5.0 10.0 0.00 0.00 0.00 71 1025.7
20190223202008 65 193 4.0 10.0 0.00 0.00 0.00 71 1025.7
20190223201408 65 194 4.0 8.0 0.00 0.00 0.00 70 1025.6
20190223200807 65 199 4.0 9.0 0.00 0.00 0.00 71 1025.6
20190223200208 64 192 4.0 9.0 0.00 0.00 0.00 71 1025.4
20190223195608 64 190 4.0 10.0 0.00 0.00 0.00 71 1025.4
20190223195008 64 196 4.0 11.0 0.00 0.00 0.00 71 1025.3
20190223194409 64 199 4.0 9.0 0.00 0.00 0.00 71 1025.4
20190223193810 64 198 4.0 9.0 0.00 0.00 0.00 71 1025.2
20190223193208 64 204 4.0 10.0 0.00 0.00 0.00 71 1025.0
20190223192608 64 199 3.0 10.0 0.00 0.00 0.00 72 1025.0
20190223192008 64 200 3.0 8.0 0.00 0.00 0.00 72 1024.9
20190223191408 64 213 3.0 7.0 0.00 0.00 0.00 73 1024.8
20190223190807 64 209 3.0 7.0 0.00 0.00 0.00 73 1024.8
20190223190208 64 202 3.0 7.0 0.00 0.00 0.00 74 1024.8
20190223185608 64 197 2.0 6.0 0.00 0.00 0.00 74 1024.8
20190223185008 64 197 3.0 7.0 0.00 0.00 0.00 75 1024.8
20190223184408 64 202 3.0 7.0 0.00 0.00 0.00 75 1024.8
20190223183807 65 194 3.0 7.0 0.00 0.00 0.00 75 1024.7
20190223183207 65 181 4.0 8.0 0.00 0.00 0.00 75 1024.6
20190223182608 65 174 4.0 8.0 0.00 0.00 0.00 75 1024.6
20190223182007 65 172 4.0 9.0 0.00 0.00 0.00 76 1024.6
20190223181407 65 173 4.0 9.0 0.00 0.00 0.00 76 1024.5
20190223180808 65 171 4.0 12.0 0.00 0.00 0.00 77 1024.4
20190223180208 64 171 3.0 12.0 0.00 0.00 0.00 78 1024.3
20190223175608 64 179 2.0 5.0 0.00 0.00 0.00 81 1024.3
20190223175007 63 187 1.0 4.0 0.00 0.00 0.00 82 1024.2
20190223174408 63 195 1.0 4.0 0.00 0.00 0.00 82 1024.1
20190223173807 63 181 1.0 4.0 0.00 0.00 0.00 83 1024.0
20190223173207 63 163 1.0 3.0 0.00 0.00 0.00 83 1023.9
20190223172608 63 153 1.0 3.0 0.00 0.00 0.00 83 1023.9
20190223172008 63 156 0.0 3.0 0.00 0.00 0.00 84 1023.9
20190223171408 63 167 0.0 2.0 0.00 0.00 0.00 84 1023.8
20190223170807 63 168 1.0 3.0 0.00 0.00 0.00 85 1023.8
20190223170208 63 177 2.0 4.0 0.00 0.00 0.00 86 1023.8
20190223165608 63 187 1.0 4.0 0.00 0.00 0.00 86 1023.8
20190223165008 62 201 0.0 4.0 0.00 0.00 0.00 87 1023.8
20190223164407 62 203 0.0 2.0 0.00 0.00 0.00 87 1023.7
20190223163810 62 0 0.0 0.0 0.00 0.00 0.00 87 1023.8
20190223163210 62 0 0.0 0.0 0.00 0.00 0.00 87 1023.8
20190223162608 63 0 0.0 0.0 0.00 0.00 0.00 87 1023.9
20190223162008 63 0 0.0 0.0 0.00 0.00 0.00 87 1023.9
20190223161408 63 0 0.0 0.0 0.00 0.00 0.00 87 1023.9
20190223160808 63 175 0.0 3.0 0.00 0.00 0.00 87 1023.9
20190223160208 63 179 0.0 3.0 0.00 0.00 0.00 87 1023.9
20190223155608 63 186 1.0 2.0 0.00 0.00 0.00 87 1023.8
20190223155007 63 185 1.0 3.0 0.00 0.00 0.00 87 1023.9
20190223154407 63 181 1.0 4.0 0.00 0.00 0.00 86 1023.8
20190223153808 63 178 1.0 4.0 0.00 0.00 0.00 86 1023.8
20190223153207 63 181 1.0 3.0 0.00 0.00 0.00 86 1023.8
20190223152607 63 183 1.0 3.0 0.00 0.00 0.00 86 1023.8
20190223152008 63 186 1.0 3.0 0.00 0.00 0.00 86 1023.7
20190223151408 64 183 1.0 4.0 0.00 0.00 0.00 86 1023.7
20190223150808 64 188 2.0 3.0 0.00 0.00 0.00 86 1023.8
20190223150207 64 194 1.0 4.0 0.00 0.00 0.00 86 1023.8
20190223145608 64 203 1.0 4.0 0.00 0.00 0.00 85 1023.9
20190223145009 64 198 1.0 3.0 0.00 0.00 0.00 85 1023.8
20190223144409 64 185 1.0 3.0 0.00 0.00 0.00 85 1023.9
20190223143808 64 208 1.0 4.0 0.00 0.00 0.00 85 1023.9
20190223143208 64 212 1.0 4.0 0.00 0.00 0.00 85 1023.9
20190223142608 64 208 2.0 4.0 0.00 0.00 0.00 84 1024.0
20190223142008 64 205 2.0 7.0 0.00 0.00 0.00 84 1024.0
20190223141416 64 199 2.0 7.0 0.00 0.00 0.00 84 1024.1
20190223140808 64 192 2.0 5.0 0.00 0.00 0.00 84 1024.2
20190223115552 64 207 3.0 7.0 0.00 0.00 0.00 87 1024.0
20190223114952 64 209 3.0 8.0 0.00 0.00 0.00 87 1024.0
20190223114351 64 202 3.0 9.0 0.00 0.00 0.00 88 1024.1
20190223113751 64 196 2.0 9.0 0.00 0.00 0.00 88 1024.2
20190223113151 64 199 2.0 6.0 0.00 0.00 0.00 88 1024.2
20190223112551 64 196 2.0 7.0 0.00 0.00 0.00 87 1024.3
20190223111952 64 178 3.0 7.0 0.00 0.00 0.00 87 1024.3
20190223111351 64 174 5.0 11.0 0.00 0.00 0.00 86 1024.3
20190223110752 65 177 8.0 15.0 0.00 0.00 0.00 84 1024.3
20190223110152 65 174 9.0 15.0 0.00 0.00 0.00 83 1024.4
20190223105551 65 169 8.0 15.0 0.00 0.00 0.00 81 1024.3
20190223104951 66 164 6.0 15.0 0.00 0.00 0.00 79 1024.2
20190223104351 66 159 6.0 12.0 0.00 0.00 0.00 79 1024.0
20190223103751 66 161 8.0 11.0 0.00 0.00 0.00 80 1024.0
20190223103151 66 164 11.0 17.0 0.00 0.00 0.00 79 1023.8
20190223102551 67 166 11.0 22.0 0.00 0.00 0.00 77 1023.8
20190223101951 68 161 10.0 21.0 0.00 0.00 0.00 72 1023.9
20190223101354 69 169 10.0 18.0 0.00 0.00 0.00 71 1023.7
20190223100751 69 156 9.0 18.0 0.00 0.00 0.00 70 1023.5
20190223100151 70 153 8.0 18.0 0.00 0.00 0.00 67 1023.5
20190223095551 70 165 8.0 13.0 0.00 0.00 0.00 66 1023.5
20190223094952 70 159 8.0 18.0 0.00 0.00 0.00 65 1023.4
20190223094351 70 147 8.0 16.0 0.00 0.00 0.00 64 1023.3
20190223093752 70 149 7.0 16.0 0.00 0.00 0.00 65 1023.2
20190223093151 71 146 8.0 15.0 0.00 0.00 0.00 66 1023.1
20190223092552 71 143 8.0 18.0 0.00 0.00 0.00 66 1023.1
20190223091954 71 141 8.0 18.0 0.00 0.00 0.00 66 1023.0
20190223091351 71 143 9.0 15.0 0.00 0.00 0.00 66 1022.9
20190223090752 71 138 9.0 20.0 0.00 0.00 0.00 65 1022.7
20190223090152 72 135 8.0 20.0 0.00 0.00 0.00 64 1022.6
20190223085553 72 135 8.0 17.0 0.00 0.00 0.00 62 1022.4
20190223084952 72 143 8.0 18.0 0.00 0.00 0.00 61 1022.4
20190223084352 73 149 7.0 18.0 0.00 0.00 0.00 59 1022.4
20190223083752 73 147 7.0 15.0 0.00 0.00 0.00 58 1022.2
20190223083151 73 146 7.0 16.0 0.00 0.00 0.00 56 1022.0
20190223082551 74 153 7.0 16.0 0.00 0.00 0.00 56 1022.0
20190223081951 74 150 6.0 16.0 0.00 0.00 0.00 56 1021.9
20190223081351 74 154 8.0 12.0 0.00 0.00 0.00 55 1021.8
20190223080751 74 156 9.0 18.0 0.00 0.00 0.00 56 1021.7
20190223080151 74 158 9.0 18.0 0.00 0.00 0.00 56 1021.5
20190223075554 74 143 10.0 16.0 0.00 0.00 0.00 57 1021.5
20190223074952 74 142 11.0 21.0 0.00 0.00 0.00 56 1021.5
20190223074352 74 145 11.0 20.0 0.00 0.00 0.00 56 1021.5
20190223073752 74 137 10.0 20.0 0.00 0.00 0.00 55 1021.5
20190223073152 75 139 10.0 20.0 0.00 0.00 0.00 55 1021.3
20190223072554 75 141 11.0 19.0 0.00 0.00 0.00 55 1021.3
20190223071951 75 143 11.0 23.0 0.00 0.00 0.00 55 1021.3
20190223071352 75 139 11.0 20.0 0.00 0.00 0.00 54 1021.2
20190223070752 76 136 11.0 21.0 0.00 0.00 0.00 54 1021.0
20190223070151 76 131 11.0 22.0 0.00 0.00 0.00 53 1021.0
20190223065551 77 138 10.0 21.0 0.00 0.00 0.00 53 1021.0
20190223064951 77 142 9.0 19.0 0.00 0.00 0.00 52 1021.0
20190223064352 76 137 9.0 21.0 0.00 0.00 0.00 52 1020.9
20190223063752 77 139 10.0 21.0 0.00 0.00 0.00 51 1020.8
20190223063155 77 135 10.0 18.0 0.00 0.00 0.00 51 1020.7
20190223062552 77 136 9.0 19.0 0.00 0.00 0.00 50 1020.7
20190223061952 78 138 7.0 18.0 0.00 0.00 0.00 51 1020.6
20190223061352 78 133 8.0 16.0 0.00 0.00 0.00 52 1020.6
20190223060751 78 143 8.0 17.0 0.00 0.00 0.00 52 1020.6
20190223060151 78 136 7.0 17.0 0.00 0.00 0.00 51 1020.6
20190223055551 78 128 6.0 16.0 0.00 0.00 0.00 51 1020.5
20190223054951 77 125 5.0 15.0 0.00 0.00 0.00 54 1020.6
20190223054352 78 111 6.0 13.0 0.00 0.00 0.00 54 1020.5
20190223053754 78 112 6.0 16.0 0.00 0.00 0.00 54 1020.6
20190223053152 77 114 6.0 16.0 0.00 0.00 0.00 54 1020.5
20190223052554 78 117 6.0 16.0 0.00 0.00 0.00 53 1020.5
20190223051952 78 125 6.0 14.0 0.00 0.00 0.00 54 1020.5
20190223051352 78 134 6.0 14.0 0.00 0.00 0.00 55 1020.5
20190223050752 77 142 5.0 12.0 0.00 0.00 0.00 55 1020.5
20190223050151 77 136 4.0 12.0 0.00 0.00 0.00 56 1020.6
20190223045552 77 132 5.0 11.0 0.00 0.00 0.00 56 1020.5
20190223044951 77 130 6.0 12.0 0.00 0.00 0.00 57 1020.5
20190223044352 76 129 5.0 12.0 0.00 0.00 0.00 58 1020.5
20190223043752 76 128 5.0 12.0 0.00 0.00 0.00 58 1020.5
20190223043151 76 128 5.0 12.0 0.00 0.00 0.00 59 1020.6
20190223042551 76 125 3.0 12.0 0.00 0.00 0.00 59 1020.7
20190223041951 76 106 3.0 11.0 0.00 0.00 0.00 60 1020.7
20190223041352 75 91 4.0 11.0 0.00 0.00 0.00 61 1020.7
20190223040752 75 106 5.0 12.0 0.00 0.00 0.00 61 1020.8
20190223040152 75 122 5.0 13.0 0.00 0.00 0.00 61 1020.8
20190223035552 75 128 6.0 12.0 0.00 0.00 0.00 61 1020.8
20190223034952 75 132 5.0 14.0 0.00 0.00 0.00 61 1020.8
20190223034351 75 141 4.0 14.0 0.00 0.00 0.00 61 1020.8
20190223033752 75 141 4.0 8.0 0.00 0.00 0.00 62 1020.8
20190223033152 76 142 5.0 11.0 0.00 0.00 0.00 62 1020.7
20190223032551 76 134 6.0 12.0 0.00 0.00 0.00 61 1020.8
20190223031952 74 135 5.0 12.0 0.00 0.00 0.00 64 1020.9
20190223031351 74 141 5.0 12.0 0.00 0.00 0.00 63 1021.0
20190223030751 74 148 6.0 10.0 0.00 0.00 0.00 64 1021.0
20190223030151 74 138 6.0 12.0 0.00 0.00 0.00 64 1021.1
20190223025551 74 133 6.0 12.0 0.00 0.00 0.00 63 1021.2
20190223024951 74 135 6.0 11.0 0.00 0.00 0.00 64 1021.1
20190223024351 74 145 7.0 13.0 0.00 0.00 0.00 64 1021.2
20190223023752 74 150 8.0 17.0 0.00 0.00 0.00 64 1021.1
20190223023152 74 152 8.0 17.0 0.00 0.00 0.00 65 1021.2
20190223022551 73 143 7.0 16.0 0.00 0.00 0.00 67 1021.3
20190223021952 73 142 7.0 15.0 0.00 0.00 0.00 66 1021.3
20190223021354 73 142 9.0 15.0 0.00 0.00 0.00 66 1021.3
20190223020752 73 137 10.0 22.0 0.00 0.00 0.00 66 1021.3
20190223020152 72 134 9.0 22.0 0.00 0.00 0.00 67 1021.3
20190223015551 73 141 8.0 18.0 0.00 0.00 0.00 66 1021.4
20190223014951 72 138 6.0 18.0 0.00 0.00 0.00 67 1021.4
20190223014351 72 127 6.0 11.0 0.00 0.00 0.00 69 1021.4
20190223013751 71 126 6.0 12.0 0.00 0.00 0.00 71 1021.5
20190223013151 71 134 6.0 12.0 0.00 0.00 0.00 71 1021.5
20190223012552 70 135 6.0 17.0 0.00 0.00 0.00 73 1021.6
20190223011952 70 131 3.0 17.0 0.00 0.00 0.00 73 1021.6
20190223011352 71 120 3.0 8.0 0.00 0.00 0.00 73 1021.6
20190223010752 71 125 3.0 9.0 0.00 0.00 0.00 71 1021.5
20190223010151 71 123 3.0 9.0 0.00 0.00 0.00 72 1021.6
20190223005554 70 126 3.0 8.0 0.00 0.00 0.00 73 1021.5
20190223004951 70 140 4.0 9.0 0.00 0.00 0.00 73 1021.5
20190223004351 70 143 3.0 9.0 0.00 0.00 0.00 73 1021.6